Location: Date Creek
(34.2167°N, 113.0301°W)
Time: 17:49:54
(UTC-07:00)

Envisat - Visible Passes

Search period start: 22 February 2018 00:00
Search period end: 04 March 2018 00:00
Orbit: 764 x 766 km, 98.2° (Epoch: 22 February)

Date Brightness Start Highest point End Pass type
(mag) Time Alt. Az. Time Alt. Az. Time Alt. Az.
22 Feb 3.3 19:35:57 10° SE 19:40:43 43° ENE 19:45:30 10° N visible
22 Feb 5.5 21:16:30 10° SW 21:19:52 18° W 21:23:14 10° NW visible
23 Feb 4.3 19:00:49 10° ESE 19:04:18 19° ENE 19:07:46 10° NNE visible
23 Feb 4.1 20:38:09 10° S 20:42:56 42° W 20:47:45 10° NNW visible
24 Feb 2.8 20:01:09 10° SSE 20:06:12 80° ENE 20:11:18 10° N visible
25 Feb 3.6 19:25:08 10° SE 19:29:39 33° ENE 19:34:10 10° N visible
25 Feb 5.1 21:04:41 10° SSW 21:08:39 23° W 21:12:38 10° NW visible
26 Feb 4.6 18:50:31 10° E 18:53:17 15° ENE 18:56:02 10° NNE visible
26 Feb 3.6 20:26:50 10° S 20:31:47 55° W 20:36:46 10° NNW visible
27 Feb 2.9 19:50:07 10° SSE 19:55:05 62° ENE 20:00:06 10° N visible
27 Feb 5.9 21:32:32 10° WSW 21:34:27 12° W 21:36:22 10° WNW visible
28 Feb 3.9 19:14:26 10° SE 19:18:35 26° ENE 19:22:46 10° NNE visible
28 Feb 4.7 20:53:04 10° SSW 20:57:27 29° W 21:01:52 10° NW visible
01 Mar 3.1 20:15:35 10° S 20:20:38 72° WSW 20:25:43 10° NNW visible
02 Mar 3.2 19:39:10 10° SE 19:44:00 47° ENE 19:48:52 10° N visible
02 Mar 5.6 21:20:10 10° SW 21:23:13 16° W 21:26:17 10° NW visible
03 Mar 4.2 19:03:51 10° ESE 19:07:34 21° ENE 19:11:16 10° NNE visible
03 Mar 4.3 20:41:35 10° SSW 20:46:16 38° W 20:50:59 10° NNW visible
